Voltar ao catálogo

YAOGAN-36 01C

AtivoMilitarVLEO
NORAD 53947·PAYLOAD·🇨🇳 China

Lançado Sep 26, 2022 de Xichang Satellite Launch Center

Loading…

Próximas Passagens (próximas 24 horas)

TLE

AtualizadoSource: Space-Track

Época: Sep 14, 2026, 19:05 UTC

1 53947U 22120E   26257.79520847  .00020042  00000-0  47796-3 0  9993
2 53947  35.0043  20.4938 0003448 269.6890  90.3435 15.40637229221615

Acompanhe YAOGAN-36 01C em tempo real com AllMySat

Download on the App Store